SHIJIAN 6 04B (SJ-6 04B)

Satellite information

Favourite Embed

Satellite Type and Status

PAYLOADIN ORBIT

Key statistics

Satellite SHIJIAN 6 04B (SJ-6 04B) at a glance.

Uptime

5450

Days in orbit

Revolutions

≈ 15.0

Per day

Orbit

SSO

Sun Synchronous Orbit

Inclination

97.9

Latest

Satellite identification and parameters

Extended collection of information and parameters for SHIJIAN 6 04B (SJ-6 04B).

Object identification

Identified? True

Debris? False

Object name: SHIJIAN 6 04B (SJ-6 04B)

International designator: 2010-051B

Object number (NORAD): 37180

Object ID (CCSDS): 37180

Country: PEOPLES REPUBLIC OF CHINA (PRC)

Current information (Y/N): Y

RCS size: LARGE

Orbital parameters

Period: 96.099 minutes

Inclination: 97.865 deg

SMA: 6949.827 km

Apoapsis: 578.977 km

Periapsis: 564.408 km

RAAN: 247.7019 deg

Eccentricy: 0.00104818

Argument of periapsis: 173.7821 deg

Mean anomaly: 186.3533 deg

Mean motion: 14.98448216 rev/day

Mean motion (dot): 0.00001473 rev/day2

B* drag term: 0.00012834913 1/REarth

Two-line elements (TLE)

Creation date: Sept. 7, 2025, 3:09 a.m.

Reference frame: TEME

Reference center: EARTH

Epoch: Sept. 6, 2025, 11:33 p.m. UTC

TLE line 0: 0 SHIJIAN 6 04B (SJ-6 04B)

TLE line 1: 1 37180U 10051B 25249.98162369 .00001473 00000-0 12835-3 0 9999

TLE line 2: 2 37180 97.8650 247.7019 0010482 173.7821 186.3533 14.98448216813255

Live tracking on map

Real-time ground track for satellite SHIJIAN 6 04B (SJ-6 04B).

In-orbit conjunctions

There are no conjunctions computed for SHIJIAN 6 04B (SJ-6 04B), at the moment. Check back to stay up to date, as we update our databases every day.

Go to all conjunctions

Associated space launch

SHIJIAN 6 04B (SJ-6 04B) was lifted into orbit during the mission ‘Long March 4B | Shijian 6G & Shijian 6H’, on board a Long March 4B space rocket.

The launch took place on Oct. 6, 2010, 12:49 a.m. from Launch Complex 7.

For more information about the launch, click the button.

Launch to space Long March 4B | Shijian 6G & Shijian 6H
Long March 4B | Shijian 6G & Shijian 6H

Agency: N/A

Status: Launch Successful

Launch date: Oct. 6, 2010, 12:49 a.m. UTC

Rocket: Long March 4B

Launch pad: Launch Complex 7

Location: Taiyuan Satellite Launch Center, People's Republic of China

...

Latest news about this satellite

There are no fresh news available about this satellite. Check back as we update our databases every day.


Newsletter sign-up

Weekly statistics, charts and insights to help you stay on top of the space industry.